Location: New Frontier Mobile Home Park
(32.8448°N, 116.9675°W)
Time: 23:02:42
(UTC+00:00)

Gblst 52 Del rocket - Pass Details

Date: 14 July 2020
Orbit: 805 x 1366 km, 51.5° (Epoch: 05 August)

Event Time Altitude Azimuth Distance (km) Brightness Sun altitude
Rises 04:45:39 0° 314° (NW) 3,354 9.0 -19.4°
Reaches altitude 10° 04:48:01 10° 316° (NW) 2,454 7.8 -19.8°
Maximum altitude 04:53:45 81° 44° (NE) 913 4.3 -20.6°
Enters shadow 04:56:10 39° 126° (SE) 1,354 4.7 -21.0°
